Location: Austin
(30.3000°N, 97.7500°W)
Time: 03:58:54
(UTC-05:00)

Cosmos 1470 Rocket - Pass Details

Date: 01 October 2024
Orbit: 599 x 629 km, 82.5° (Epoch: 06 October)

Event Time Altitude Azimuth Distance (km) Brightness Sun altitude
Rises 19:50:02 0° 160° (SSE) 2,902 6.8 -8.3°
Reaches altitude 10° 19:52:31 10° 148° (SSE) 1,998 5.9 -8.8°
Maximum altitude 19:56:15 27° 90° (E) 1,206 4.5 -9.6°
Drops below altitude 10° 19:59:59 10° 33° (NNE) 2,001 5.9 -10.4°
Sets 20:02:28 0° 21° (NNE) 2,908 6.8 -11.0°
